COSMOS 1852

Satellite information

Favourite Embed

Satellite Type and Status

PAYLOADIN ORBIT

Key statistics

Satellite COSMOS 1852 at a glance.

Uptime

13846

Days in orbit

Revolutions

≈ 12.4

Per day

Orbit

LEO

Low Earth Orbit

Inclination

74.0

Latest

Satellite identification and parameters

Extended collection of information and parameters for COSMOS 1852.

Object identification

Identified? True

Debris? False

Object name: COSMOS 1852

International designator: 1987-051A

Object number (NORAD): 18113

Object ID (CCSDS): 18113

Country: COMMONWEALTH OF INDEPENDENT STATES (CIS)

Current information (Y/N): Y

RCS size: MEDIUM

Orbital parameters

Period: 115.674 minutes

Inclination: 74.0029 deg

SMA: 7864.125 km

Apoapsis: 1499.295 km

Periapsis: 1472.685 km

RAAN: 292.0885 deg

Eccentricy: 0.0016919

Argument of periapsis: 182.0086 deg

Mean anomaly: 178.0896 deg

Mean motion: 12.44879036 rev/day

Mean motion (dot): -0.00000022 rev/day2

B* drag term: -0.000043192 1/REarth

Two-line elements (TLE)

Creation date: May 12, 2025, 7:41 p.m.

Reference frame: TEME

Reference center: EARTH

Epoch: May 12, 2025, 1:15 p.m. UTC

TLE line 0: 0 COSMOS 1852

TLE line 1: 1 18113U 87051A 25132.55214796 -.00000022 00000-0 -43192-4 0 9996

TLE line 2: 2 18113 74.0029 292.0885 0016919 182.0086 178.0896 12.44879036722579

Live tracking on map

Real-time ground track for satellite COSMOS 1852.

In-orbit conjunctions

There are no conjunctions computed for COSMOS 1852, at the moment. Check back to stay up to date, as we update our databases every day.

Go to all conjunctions

Associated space launch

Military communications satellites

COSMOS 1852 was lifted into orbit during the mission ‘Kosmos-3M | Strela-1M 321-328’, on board a Kosmos-3M space rocket.

The launch took place on June 16, 1987, 5:51 p.m. from 132/1 (132L).

For more information about the launch, click the button.

Launch to space Kosmos-3M | Strela-1M 321-328
Kosmos-3M | Strela-1M 321-328

Agency: N/A

Status: Launch Successful

Launch date: June 16, 1987, 5:51 p.m. UTC

Rocket: Kosmos-3M

Launch pad: 132/1 (132L)

Location: Plesetsk Cosmodrome, Russian Federation

...

Latest news about this satellite

There are no fresh news available about this satellite. Check back as we update our databases every day.


Newsletter sign-up

Weekly statistics, charts and insights to help you stay on top of the space industry.